Showing default

TELSTAR 1, 340

Orbit data source: Space-Track

TELSTAR 1, 340 is a payload satellite owned by AT&T (US) in LEO that was launched on Tue, 10 Jul 1962 UTC via a THOR DELTA launch vehicle from the Air Force Eastern Test Range (AFETR). Payloads include a variety of satellites, spacecraft, and rockets equipped with specific instruments for various scientific and technological missions. These include communications satellites like Starlink; space stations such as the ISS; scientific satellites like the Hubble; Earth observation satellites from companies like Planet Labs, Umbra, and HawkEye 360; GPS; miniature CubeSats for education and research; and military/defense satellites.

Loading next visibility...
TELSTAR 1 details
Identifier
340, 1962-029A
Orbit
LEO
Last TLE update12 hours ago
Origin
Flag of USAT&T (US)
ManufacturerAT&T/BTL
MissionCommercial Communications
Bus & MotorTSX, Unknown motor
Mass77 kg wet, 77 kg dry
Launch date (UTC)
1962-07-10 (63 years ago)
Launch vehicle
THOR DELTA
Launch site
Air Force Eastern Test Range (AFETR)
Object type
Payload
Rocket body
Debris
Shape & HBRSphere, 0.86 m
Radar Cross Section0.581 m², Medium (>0.1 m² and < 1m²)

Expand to show TLE details & history

TLE from 12 hours ago
0 TELSTAR 1
1 00340U 62029A   25014.94952605 -.00000012  00000-0  12847-3 0  9997
2 00340  44.7896 204.1476 2419747 192.2253 336.5297  9.12882115 85116
Epoch: 2025-01-14T22:47Z
Definitive object data (Epoch: 2025-01-14T22:47:19.05Z)
Latitude18.21435°
Longitude-91.58539°
Altitude1,276.246 km
Speed7.936 km/s
True Right ascension00h 19m 34s
True Declination18° 07' 10"
Sunlit
Object was in daylight at TLE epoch
Visualization TLE readout
Latitude22.75883°
Longitude131.63471°
Altitude5,405.354 km
Speed5.144 km/s
Apparent Right ascension16h 57m 30s
Apparent Declination3° 04' 01"
Sunlit
Object is in daylight
Visualization observer readout
Local Sidereal Time11:41:20
Azimuth94.71° ESE
Elevation10.365°
Doppler factor1
Orbital elements
Apogee altitude5,634.239 km
Perigee altitude953.482 km
Semi-major axis9,671.998 km
Eccentricity0.2419747
Inclination44.7896°
RAAN204.1476°
Arg. of periapsis192.2253°
True anomaly321.51426°
Mean anomaly336.5297°
Eccentric anomaly329.49131°
Mean motion2.28175 °/min
BSTAR0.00012847
Orbital period157.77 mins
Loading maneuver chart data...
Loading historical data...
Loading historical data...
Loading historical data...
Loading historical data...
Loading historical data...
Loading historical data...
Loading historical data...
Other satellites on launch #29 in the year 1962 (1962-07-10 UTC)

TELSTAR 1 Visibility forecast

Observer location: undefined°, undefined

Span
Click to sort rows by Start time (UTC) header in descending order
Start Az.
Max El. time (UTC)
Max El. Az.
Max El.
End time (UTC)
End Az.
54 mins2025-01-15 13:11:12.132Z193.797° SSW2025-01-15 13:42:12.132Z130.205° SE37.277°2025-01-15 14:05:12.132Z66.236° ENE
52 mins2025-01-15 16:02:12.132Z238.941° WSW2025-01-15 16:36:12.132Z99.971° ESE44.996°2025-01-15 16:54:12.132Z68.555° E
37 mins2025-01-15 19:04:12.132Z277.733° WNW2025-01-15 19:29:12.132Z355.072° N44.135°2025-01-15 19:41:12.132Z91.825° ESE
23 mins2025-01-15 22:03:12.132Z294.744° NW2025-01-15 22:18:12.132Z222.465° SW40.987°2025-01-15 22:26:12.132Z143.528° SSE
|